Location: Monteux
(44.0348°N, 4.9972°E)
Time: 17:56:59
(UTC+00:00)

Okean O Rocket - Pass Details

Date: 30 November 2020
Orbit: 622 x 645 km, 98.2° (Epoch: 23 January)

Event Time Altitude Azimuth Distance (km) Brightness Sun altitude
Rises 17:33:53 0° 181° (S) 2,894 5.2 -15.8°
Reaches altitude 10° 17:36:08 10° 187° (S) 1,995 4.4 -16.2°
Maximum altitude 17:40:18 45° 261° (W) 856 2.8 -16.9°
Drops below altitude 10° 17:44:32 10° 334° (NNW) 2,023 4.3 -17.7°
Sets 17:46:50 0° 341° (NNW) 2,939 5.1 -18.1°
